Regional Weather Roundup
Issued by NWS

Home | Current Version | Previous Version | Text Only | Print | Product List | Glossary Off
Versions: 1 2 3 4 5 6 7 8 9 10 11 12 13 14 15 16 17 18 19 20 21 22 23 24 25 26 27 28 29 30 31 32 33 34 35 36 37 38 39 40 41 42 43 44 45 46 47 48 49 50

000
ASUS43 KFSD 271810
RWRSD

WEATHER ROUNDUP FOR SOUTH DAKOTA
NATIONAL WEATHER SERVICE SIOUX FALLS SD
100 PM CDT SAT AUG 27 2016

NOTE: "FAIR" INDICATES FEW OR NO CLOUDS BELOW 12,000 FEET WITH NO
SIGNIFICANT WEATHER AND/OR OBSTRUCTIONS TO VISIBILITY.


SDZ001>005-009-010-012>017-271900-
NORTHWEST AND NORTH CENTRAL SOUTH DAKOTA

CITY           SKY/WX    TMP DP  RH WIND       PRES   REMARKS
BUFFALO          N/A     74  51  44 SE8       29.88F
FAITH            N/A     75  53  46 MISG      29.93F
MOBRIDGE       SUNNY     75  57  53 S6        29.91F
$$

SDZ012>016-024>037-041>051-057-063-072>074-271900-
SOUTHWEST AND SOUTH CENTRAL SOUTH DAKOTA

CITY           SKY/WX    TMP DP  RH WIND       PRES   REMARKS
RAPID CTY ARPT SUNNY     75  56  51 S13       29.95F
PIERRE         SUNNY     74  53  48 CALM      29.93F
CUSTER         SUNNY     69  44  40 SW8G20    30.07S
ELLSWORTH AFB  SUNNY     73  56  55 S12       29.94F
PHILIP         SUNNY     76  56  49 SE7       29.94F
PINE RIDGE     SUNNY     73  60  63 SW13      29.99F
WINNER         FAIR      82  49  31 SW7       29.96F
$$

SDZ004>011-016>023-039-040-271900-
NORTHEAST SOUTH DAKOTA

CITY           SKY/WX    TMP DP  RH WIND       PRES   REMARKS
ABERDEEN       PTSUNNY   70  60  70 S12       29.95F
WATERTOWN      PTSUNNY   70  59  68 S8        29.98S
BROOKINGS      CLOUDY    66  60  81 SE5       29.99F
SISSETON         N/A     74  60  61 S13       29.94F
$$

SDZ017-020-022-023-036>040-048>070-271900-
SOUTHEAST SOUTH DAKOTA

CITY           SKY/WX    TMP DP  RH WIND       PRES   REMARKS
SIOUX FALLS    CLOUDY    69  63  81 SW5       30.00F
HURON          CLOUDY    71  61  70 S9        29.96F
CHAMBERLAIN    SUNNY     78  59  51 SW5       29.96F
MITCHELL       MOSUNNY   75  62  64 SW9       29.97F
YANKTON        MOSUNNY   73  57  56 CALM      29.98S
$$

ABBREVIATIONS USED IN REMARKS
   TC - TEMPERATURE IN CELSIUS
  WCI - WIND CHILL INDEX
   HX - HEAT INDEX
  VSB - VISIBILITY





USA.gov is the U.S. government's official web portal to all federal, state and local government web resources and services.